sat.trackr.live / text

‹ back to catalog

KL-ALPHA A

NORAD 44785 · 2019-077A

PAYLOAD ACTIVE UNKNOWN

§ Identity

Operator
Country
GER
Launch date
2019-11-17
Launch site
JSC
Launch vehicle
Mass (kg)
RCS (m²)

External: N2YO · Heavens-Above · Gunter

§ Orbital elements

Epoch: 2026-05-25T04:07:50.038752Z

Period
106.19 min
Inclination
88.9257°
Eccentricity
0.0011572
Mean motion
13.56041092 rev/d
Perigee alt
1,041.5 km
Apogee alt
1,058.7 km
Semi-major
7,428.3 km
B*
2.5417e-4
RAAN
225.0794°
Arg perigee
165.4812°
Mean anomaly
194.6676°
Rev number
32,261

§ Raw data

KL-ALPHA A1 44785U 19077A   26145.17210693  .00000190  00000+0  25417-3 0  99902 44785  88.9257 225.0794 0011572 165.4812 194.6676 13.56041092322615

JSON: /api/v1/satellites/44785 · /tle

For live sub-satellite position, see the globe view (requires WebGL).

§ Visibility from observer

Set your observer location to see the next 7 days of passes ≥ 10°. The values pass through the URL so the page stays shareable.

No JS? Fill the form by hand. The geolocation button needs JavaScript.

§ Radio — SatNOGS DB

ModeDescriptionDownlinkUplink
BPSK Mode S 2.220 GHz

1 transmitter · refreshed weekly from db.satnogs.org